Regional Weather Roundup
Issued by NWS Sterling, VA

Home | Current Version | Previous Version | Text Only | Print | Product List | Glossary Off
Versions: 1 2 3 4 5 6 7 8 9 10 11 12 13 14 15 16 17 18 19 20 21 22 23 24 25 26 27 28 29 30 31 32 33 34 35 36 37 38 39 40 41 42 43 44 45 46 47 48 49 50

000
ASUS41 KLWX 222010
RWRLWX

REGIONAL WEATHER ROUNDUP
NATIONAL WEATHER SERVICE BALTIMORE MD/WASHINGTON DC
400 PM EDT FRI MAY 22 2015

Note: "FAIR" indicates few or no clouds below 12,000 feet
with no significant weather and/or obstructions to visibility.
 TC=TEMPERATURE CELSIUS

 * =Non NWS site. Station does not report precipitation (e.g. rain,
    snow, etc.), thunder, or fog.

DCZ001-MDZ009-015-VAZ040>042-051-053>054-222100-
WASHINGTON METRO

CITY           SKY/WX    TMP DP  RH WIND       PRES   REMARKS
WASHINGTON NAT MOSUNNY   78  43  28 W14G26    30.09S
DULLES         MOSUNNY   74  43  32 W17G24    30.09S
ANDREWS AFB    MOSUNNY   74  44  34 W10G22    30.08S
FT BELVOIR     SUNNY     75  42  30 W10G21    30.09F
QUANTICO       SUNNY     75  41  29 W14       30.11F
COLLEGE PARK*  SUNNY     75  39  27 W10G20    30.07S
LEESBURG*      SUNNY     73  45  35 W17G32    30.09F
MANASSAS*      MOSUNNY   73  45  35 W7        30.10S
GAITHERSBURG*  MOSUNNY   72  43  35 W20       30.11F

$$

MDZ006>007-011-014-222100-
BALTIMORE METRO

CITY           SKY/WX    TMP DP  RH WIND       PRES   REMARKS
BWI AIRPORT    MOSUNNY   74  42  31 W14G23    30.06S
MD SCIENCE CTR   N/A     75  40  28 MISG      30.05F
MARTIN STATE   MOSUNNY   75  43  31 W10G18    30.05F
ANNAPOLIS      MOSUNNY   73  40  30 W13G22    30.06F
FORT MEADE*    SUNNY     72  43  35 W17G32    30.09S

$$

MDZ012-015-019>023-222100-
MARYLAND EASTERN SHORE

CITY           SKY/WX    TMP DP  RH WIND       PRES   REMARKS
OCEAN CITY     SUNNY     73  44  35 W13G18    30.08S
SALISBURY      SUNNY     72  42  34 W17G23    30.08S
BAY BRIDGE AP*   N/A    N/A N/A N/A W9G17     30.07S
CAMBRIDGE*     SUNNY     73  41  31 W13G20    30.09S
EASTON*        SUNNY     75  46  35 NW12G23   30.11F

$$

MDZ017>025-222100-
SOUTHERN MARYLAND

CITY           SKY/WX    TMP DP  RH WIND       PRES   REMARKS
PATUXENT RIVER MOSUNNY   74  42  31 W16G23    30.10S
ST INIGOES     SUNNY     72  45  37 W13       30.11S
LEONARDTOWN*   SUNNY     72  41  33 W13G18    30.12F

$$

MDZ003>005-222100-
NORTH CENTRAL MARYLAND

CITY           SKY/WX    TMP DP  RH WIND       PRES   REMARKS
FREDERICK*     PTSUNNY   75  45  33 W22G31    30.10S
HAGERSTOWN APT PTSUNNY   73  39  29 W22G32    30.06S
WESTMINSTER*   MOSUNNY   73  36  25 W17G26    30.06S

$$

MDZ501>502-222100-
WESTERN MARYLAND

CITY           SKY/WX    TMP DP  RH WIND       PRES   REMARKS
OAKLAND*       MOSUNNY   55  50  82 W9G20     30.17S
CUMBERLAND*    MOSUNNY   70  41  35 W16G26    30.15S

$$

VAZ025>031-222100-
SHENANDOAH VALLEY

CITY           SKY/WX    TMP DP  RH WIND       PRES   REMARKS
WINCHESTER*    SUNNY     73  23  15 W21G32    30.10R
FRONT ROYAL*   FAIR      72  45  37 W6        30.10S
LURAY*         FAIR      77  43  29 W12       30.12S
NEW MARKET*    FAIR      73  39  29 W7        30.11S
STAUNTON*      SUNNY     72  39  29 NW7       30.16F
WAYNESBORO*    FAIR      70  42  36 SW5       30.15F

$$

WVZ021-048>050-054>055-222100-
EASTERN WEST VIRGINIA PANHANDLE

CITY           SKY/WX    TMP DP  RH WIND       PRES   REMARKS
MARTINSBURG    MOSUNNY   73  39  29 W15G26    30.09S
PETERSBURG*    MOSUNNY   70  35  27 W15G21    30.14S

$$

VAZ036>039-050-222100-
CENTRAL FOOTHILLS

CITY           SKY/WX    TMP DP  RH WIND       PRES   REMARKS
CHARLOTTESVILL MOSUNNY   72  40  31 VRB5      30.13F
CULPEPER*      SUNNY     74  44  34 SW14      30.11F
ORANGE*        SUNNY     75  45  33 SW15      30.13F
GORDONSVILLE*  FAIR      73  43  34 SW8       30.12F
WARRENTON*     FAIR      76  47  35 W6G17     30.10F

$$

VAZ055>057-222100-
NORTH AND CENTRAL PIEDMONT

CITY           SKY/WX    TMP DP  RH WIND       PRES   REMARKS
FREDERICKSBRG* SUNNY     75  44  32 SW9       30.11F
STAFFORD*      SUNNY     73  38  28 SW8G18    30.15F

$$

NCZ024-NYZ072-PAZ021-071-VAZ022-071-222100-
OTHER REGIONAL OBSERVATIONS

CITY           SKY/WX    TMP DP  RH WIND       PRES   REMARKS
NEW YORK CITY  CLOUDY    68  40  35 W10G18    29.96R
PHILADELPHIA   PTSUNNY   75  39  27 W21G30    30.00S
PITTSBURGH     MOSUNNY   68  38  33 NW21G29   30.14R
ROANOKE        MOSUNNY   72  41  32 W13G22    30.21S
RICHMOND       MOSUNNY   75  41  29 VRB5      30.14F
RALEIGH        MOSUNNY   73  44  35 VRB5      30.19F

$$

ANZ530>537-222100-
MARINE OBSERVATIONS

STATION/POSITION TIME  TEMP    WIND        PRES
                       AIR SEA DIR/SP/G
                 (UTC) (F)     (DEG/KT/KT) (MB)
THOMAS PT LIGHT  2000   72 65  280/ 17/ 21 1018.7F
BALT KEY BRIDGE  1900   70     250/ 17/ 21 1017.2F
LEWISETTA        1900   69 69              1019.7F
SOLOMONS ISLAND  1900      69                N/A
PINEY POINT      1900          320/ 13/ 14   N/A

$$




USA.gov is the U.S. government's official web portal to all federal, state and local government web resources and services.